Location: *
(12.5665°N, 8.3471°E)
Time: 20:17:06
(UTC+00:00)

Delta 128 - Pass Details

Date: 23 September 2019
Orbit: 609 x 1216 km, 28.0° (Epoch: 21 October)

Event Time Altitude Azimuth Distance (km) Brightness Sun altitude
Exits shadow 04:04:16 30° 298° (WNW) 1,190 4.5 -18.3°
Maximum altitude 04:05:44 38° 336° (NNW) 1,003 4.4 -17.9°
Drops below altitude 10° 04:09:59 10° 45° (NE) 1,981 6.9 -16.9°
Sets 04:12:22 0° 54° (NE) 2,859 8.0 -16.3°
